www.pogodaiklimat.ru

Погода и климат >> Архив погоды >> Австралия >> Canberra


АРХИВ ПОГОДЫ в Canberra

Время (UTC), дата Ветер
(напр.,м/с)
 
Видим.   Явления Облачность Т
(С)
Тd
(С)
f
(%)
Тe
(С)
Тes
(С)
Комфортность P
(гПа)
Po
(гПа)
Тmin
(С)
Tmax
(С)
R
(мм)
R24
(мм)
S
(см)
07 11.08 СЗ 7 н/о н/о +7.9 +6.0 88 +3 +3 по сезону 1010.4 942.4
08 11.08 СЗ 7 н/о слабый дождь {туман} 10/10 600 м
[]
+7.0 +5.2 88 +2 +2 по сезону 1011.5 943.4
09 11.08 СЗ 6 н/о н/о +5.4 +3.1 85 +1 +1 холодно 1012.0 943.9
11 11.08 СЗ 5 н/о {туман} 3/3 600 м
[]
+4.3 +2.7 89 -1 -1 по сезону 1013.0 944.8
10 11.08 СЗ 5 н/о н/о +4.6 +2.6 87 -0 -0 по сезону 1012.5 944.3
12 11.08 СЗ 5 н/о н/о +4.3 +3.3 93 -1 -1 прохладно 1012.8 944.6
13 11.08 С 7 н/о н/о +4.5 +3.2 91 -1 -1 тепло 1012.5 944.3
14 11.08 ЮЗ 4 н/о дождь {туман} 10/10 300 м
[]
+2.6 +1.9 95 -2 -2 по сезону 1013.2 945.0 +16.5
15 11.08 В 2 н/о н/о +2.6 +2.5 99 -1 -1 по сезону 1013.1 944.9
17 11.08 ЮЗ 1 н/о {туман} 10/0
[]
+2.9 +2.8 99 +2 +2 тепло 1012.4 944.2
16 11.08 СВ 2 н/о н/о +1.8 +1.7 99 -2 -2 по сезону 1012.6 944.4
18 11.08 СЗ 6 н/о н/о +3.6 +2.6 93 -2 -2 по сезону 1012.4 944.2
19 11.08 С 4 н/о н/о +2.0 +1.3 95 -3 -3 по сезону 1012.9 944.7
20 11.08 С 2 н/о 10/10 1000 м
[]
+1.9 +1.5 97 -2 -2 по сезону 1014.0 945.7
21 11.08 З 4 н/о н/о +1.8 +0.9 94 -3 -3 холодно 1014.7 946.4
23 11.08 З 5 н/о н/о +6.4 +1.7 72 +3 +3 по сезону 1016.9 948.4
22 11.08 С 3 н/о н/о +3.6 +1.5 86 0 0 прохладно 1016.3 947.9
00 12.08 З 4 н/о н/о +7.9 -1.1 53 +5 +5 по сезону 1017.5 949.0
01 12.08 СЗ 5 н/о н/о +8.9 -0.9 50 +6 +6 по сезону 1017.9 949.4
02 12.08 СЗ 6 н/о 5/5 1000 м
[]
+10.2 -0.3 48 +7 +9 по сезону 1017.8 949.3 +1.5
03 12.08 СЗ 8 н/о н/о +10.5 -0.6 46 +7 +7 по сезону 1017.6 949.1
05 12.08 З 9 н/о 1/1 1500 м
[]
+10.7 -2.7 39 +7 +8 по сезону 1018.1 949.6
04 12.08 СЗ 9 н/о н/о +11.2 -2.2 39 +8 +8 по сезону 1017.6 949.1
06 12.08 З 7 н/о н/о +9.7 -1.1 47 +6 +6 прохладно 1018.9 950.3
07 12.08 З 6 н/о н/о +7.9 -2.1 49 +4 +4 по сезону 1019.5 950.9
08 12.08 З 6 н/о н/о +6.5 -1.4 57 +2 +2 по сезону 1020.8 952.1
09 12.08 З 4 н/о н/о +5.8 -1.1 61 +2 +2 прохладно 1021.7 952.9
11 12.08 СЗ 5 н/о 6/0
[]
+4.7 -1.9 62 0 0 по сезону 1022.4 953.6
10 12.08 СЗ 5 н/о н/о +4.7 -1.7 63 0 0 по сезону 1021.8 953.0
12 12.08 СЗ 4 н/о н/о +4.1 -2.3 63 0 0 прохладно 1022.4 953.6
13 12.08 С 5 н/о н/о +3.8 -2.0 66 -1 -1 тепло 1021.9 953.1
14 12.08 СЗ 7 н/о 1/0
[]
+4.1 -1.3 68 -1 -1 по сезону 1021.6 952.8 +11.8
15 12.08 С 4 н/о н/о +3.4 -0.4 76 -1 -1 по сезону 1021.3 952.5
17 12.08 С 6 н/о н/о +3.3 +0.4 81 -2 -2 тепло 1020.7 952.0
16 12.08 С 5 н/о н/о +3.1 -0.5 77 -2 -2 по сезону 1020.7 952.0
18 12.08 С 7 н/о н/о +4.9 +1.2 77 -1 -1 по сезону 1020.3 951.6
19 12.08 С 8 н/о н/о +4.2 +1.7 84 -2 -2 по сезону 1020.5 951.8
20 12.08 С 5 н/о н/о +4.2 +2.6 89 -1 -1 по сезону 1021.1 952.4
21 12.08 С 8 н/о н/о +4.2 +2.4 88 -2 -2 холодно 1021.7 952.9
23 12.08 СЗ 7 н/о н/о +7.6 +3.6 76 +3 +3 по сезону 1022.9 954.0
22 12.08 С 8 н/о н/о +5.2 +3.2 87 -1 -1 прохладно 1022.4 953.6
00 13.08 СЗ 7 н/о н/о +9.2 +3.6 68 +5 +5 по сезону 1023.8 954.9
01 13.08 З 8 н/о н/о +11.3 +2.9 56 +8 +8 тепло 1023.6 954.7
02 13.08 З 8 н/о н/о +12.7 +2.8 51 +10 +10 тепло 1022.8 953.9 +2.5
03 13.08 СЗ 9 н/о н/о +13.1 +3.2 51 +10 +10 по сезону 1022.0 953.2
05 13.08 З 10 н/о н/о +12.5 +3.5 54 +9 +9 по сезону 1022.1 953.3
04 13.08 З 9 н/о н/о +13.0 +3.4 52 +10 +10 по сезону 1021.8 953.0
06 13.08 СЗ 9 н/о н/о +11.5 +3.5 58 +8 +8 прохладно 1022.4 953.6
07 13.08 З 10 н/о н/о +10.3 +3.6 63 +6 +6 тепло 1022.4 953.6
08 13.08 З 8 н/о н/о +9.5 +2.8 63 +6 +6 по сезону 1023.1 954.2
09 13.08 З 9 н/о н/о +9.0 +2.8 65 +5 +5 по сезону 1023.4 954.5
11 13.08 СЗ 6 н/о н/о +7.2 +1.9 69 +3 +3 тепло 1024.7 955.7
10 13.08 СЗ 6 н/о н/о +8.2 +2.2 66 +4 +4 тепло 1024.1 955.2
12 13.08 СЗ 5 н/о н/о +7.7 +2.0 67 +4 +4 по сезону 1024.7 955.7
13 13.08 СЗ 6 н/о н/о +7.5 +2.2 69 +3 +3 тепло 1024.8 955.8
14 13.08 СЗ 5 н/о н/о +6.1 +2.0 75 +2 +2 по сезону 1024.6 955.6 +13.9
15 13.08 СЗ 6 н/о н/о +6.3 +2.2 75 +2 +2 по сезону 1024.4 955.4
17 13.08 СЗ 4 н/о н/о +6.2 +1.7 73 +3 +3 тепло 1023.6 954.7
16 13.08 СЗ 5 н/о н/о +5.6 +2.1 78 +1 +1 тепло 1024.1 955.2
18 13.08 СЗ 3 н/о н/о +5.1 +1.6 78 +2 +2 по сезону 1023.5 954.6
19 13.08 СЗ 4 н/о н/о +5.5 +1.4 75 +2 +2 тепло 1024.0 955.1
20 13.08 С 2 н/о н/о +4.1 +1.3 82 +2 +2 по сезону 1023.8 954.9
21 13.08 С 5 н/о н/о +4.9 +2.3 83 0 0 прохладно 1024.5 955.5
23 13.08 СЗ 6 н/о н/о +9.6 +3.6 66 +6 +6 тепло 1025.0 956.0
22 13.08 С 4 н/о н/о +7.0 +3.4 78 +3 +3 по сезону 1024.8 955.8
00 14.08 СЗ 5 н/о н/о +11.2 +3.3 58 +9 +9 по сезону 1024.8 955.8
01 14.08 С 6 н/о н/о +12.5 +3.7 55 +10 +10 тепло 1024.4 955.4
02 14.08 С 6 н/о н/о +14.0 +4.6 53 +12 +12 тепло 1023.2 954.3 +2.9
03 14.08 С 7 н/о н/о +15.4 +4.8 49 +14 +14 тепло 1021.8 953.0
05 14.08 С 8 н/о н/о +14.9 +4.3 49 +13 +13 тепло 1020.5 951.8
04 14.08 С 9 н/о н/о +15.7 +5.0 49 +14 +14 тепло 1020.8 952.1
06 14.08 С 7 н/о н/о +14.2 +4.8 53 +12 +12 по сезону 1020.0 951.3
07 14.08 С 7 н/о н/о +11.9 +4.9 62 +9 +9 тепло 1020.2 951.5
08 14.08 С 6 н/о н/о +10.2 +4.8 69 +7 +7 по сезону 1020.4 951.7
09 14.08 СЗ 8 н/о н/о +8.8 +4.8 76 +5 +5 по сезону 1020.7 952.0
11 14.08 С 6 н/о н/о +7.4 +4.2 80 +3 +3 тепло 1020.5 951.8
10 14.08 С 6 н/о н/о +7.9 +4.7 80 +4 +4 по сезону 1020.8 952.1
12 14.08 СЗ 5 н/о н/о +7.5 +3.6 76 +4 +4 по сезону 1020.5 951.8
13 14.08 С 6 н/о н/о +7.8 +4.4 79 +4 +4 тепло 1020.0 951.3
14 14.08 С 7 н/о н/о +7.2 +4.2 81 +2 +2 по сезону 1019.2 950.6 +16.5
15 14.08 С 7 н/о н/о +7.4 +4.0 79 +3 +3 по сезону 1018.8 950.2
17 14.08 С 7 н/о н/о +6.7 +4.0 83 +2 +2 тепло 1017.4 948.9
16 14.08 С 7 н/о н/о +6.9 +3.9 81 +2 +2 тепло 1018.1 949.6
18 14.08 С 6 н/о н/о +6.6 +3.9 83 +2 +2 по сезону 1016.4 948.0
19 14.08 С 8 н/о н/о +6.6 +3.8 82 +1 +1 тепло 1016.1 947.7
20 14.08 С 8 н/о н/о +6.3 +3.6 83 +1 +1 по сезону 1016.0 947.6
21 14.08 С 6 н/о н/о +6.6 +3.0 78 +2 +2 по сезону 1016.2 947.8
23 14.08 С 9 н/о н/о +9.9 +3.0 62 +6 +6 тепло 1015.9 947.5
22 14.08 С 6 н/о н/о +8.0 +2.7 69 +4 +4 по сезону 1016.4 948.0
00 15.08 С 10 н/о н/о +11.8 +2.3 52 +8 +8 по сезону 1014.5 946.2
01 15.08 СЗ 10 н/о н/о +13.2 +2.7 49 +10 +10 тепло 1013.6 945.4
02 15.08 СЗ 12 н/о 1/0
[]
+14.7 +1.6 41 +12 +12 тепло 1012.8 944.6 +5.7
03 15.08 СЗ 10 н/о н/о +14.7 +1.9 42 +12 +12 тепло 1011.9 943.8
05 15.08 СЗ 10 н/о 5/0
[]
+13.9 +2.5 46 +11 +11 тепло 1011.4 943.3
04 15.08 СЗ 10 н/о н/о +14.9 +1.1 39 +13 +13 тепло 1012.0 943.9
06 15.08 СЗ 9 н/о н/о +13.4 +2.3 47 +11 +11 по сезону 1011.3 943.2
07 15.08 СЗ 8 н/о н/о +12.8 +2.6 50 +10 +10 тепло 1010.7 942.7
08 15.08 СЗ 10 н/о 3/0
[]
+12.8 +2.1 48 +10 +10 тепло 1010.0 942.0
09 15.08 СЗ 12 н/о н/о +13.0 +1.4 45 +10 +10 тепло 1009.6 941.6
11 15.08 СЗ 10 н/о н/о +12.6 +0.7 44 +10 +10 тепло 1010.1 942.1
10 15.08 СЗ 9 н/о н/о +12.4 +1.1 46 +10 +10 тепло 1009.8 941.8
12 15.08 СЗ 7 н/о н/о +12.0 -0.2 43 +9 +9 тепло 1010.0 942.0
13 15.08 З 7 н/о н/о +12.1 +0.8 46 +10 +10 тепло 1010.2 942.2
14 15.08 З 6 н/о н/о +11.5 +2.5 54 +9 +9 тепло 1010.1 942.1 +16.1
15 15.08 З 7 н/о н/о +10.4 +3.4 62 +7 +7 тепло 1010.2 942.2
17 15.08 З 5 н/о н/о +9.7 +2.3 60 +7 +7 тепло 1009.8 941.8
16 15.08 З 7 н/о н/о +10.0 +3.7 65 +7 +7 тепло 1009.9 941.9
18 15.08 СЗ 4 н/о н/о +9.0 +2.1 62 +6 +6 тепло 1010.1 942.1
19 15.08 С 4 н/о н/о +7.7 +1.5 65 +5 +5 тепло 1010.3 942.3
20 15.08 СЗ 6 н/о н/о +7.0 +2.3 72 +3 +3 по сезону 1010.7 942.7
21 15.08 С 4 н/о н/о +6.9 +1.8 70 +4 +4 по сезону 1011.7 943.6
23 15.08 СЗ 6 н/о н/о +10.3 -0.5 47 +8 +8 тепло 1013.2 945.0
22 15.08 СЗ 8 н/о н/о +8.9 +1.1 58 +5 +5 по сезону 1012.2 944.1
00 16.08 СЗ 6 н/о н/о +11.3 -0.8 43 +9 +9 по сезону 1013.3 945.1
01 16.08 СЗ 6 н/о н/о +11.7 -0.4 43 +9 +9 тепло 1013.5 945.3
02 16.08 СЗ 6 н/о н/о +12.4 -0.5 41 +10 +10 тепло 1013.1 944.9 +6.6
03 16.08 СЗ 7 н/о н/о +12.8 -1.1 38 +10 +10 по сезону 1012.2 944.1
05 16.08 СЗ 8 н/о н/о +12.5 -1.4 38 +10 +10 по сезону 1012.1 944.0
04 16.08 З 7 н/о н/о +13.1 -1.6 36 +11 +11 по сезону 1012.1 944.0
06 16.08 З 7 н/о н/о +12.0 -0.8 41 +9 +9 по сезону 1012.5 944.3
07 16.08 З 7 н/о н/о +10.3 -0.5 47 +7 +7 тепло 1012.8 944.6
08 16.08 З 6 н/о н/о +8.5 -0.8 52 +5 +5 по сезону 1013.6 945.4
09 16.08 З 5 н/о н/о +7.5 -0.9 55 +4 +4 прохладно 1014.6 946.3
11 16.08 С 1 н/о н/о +3.9 -1.3 69 +4 +4 тепло 1015.5 947.1
10 16.08 СЗ 3 н/о н/о +5.0 -1.2 64 +2 +2 по сезону 1014.9 946.6
12 16.08 СВ 3 н/о н/о +2.6 -1.6 74 -1 -1 прохладно 1015.8 947.4
13 16.08 СВ 2 н/о н/о -1.0 -4.0 80 -4 -4 по сезону 1015.7 947.3
14 16.08 ЮВ 2 н/о н/о -0.4 -2.3 87 -4 -4 по сезону 1015.7 947.3 +13.9
15 16.08 ЮВ 3 н/о н/о -1.3 -2.6 91 -6 -6 очень
холодно
1015.6 947.2
17 16.08 ЮВ 2 н/о н/о -2.8 -3.8 93 -6 -6 по сезону 1015.7 947.3
16 16.08 ЮВ 1 н/о н/о -2.2 -3.6 90 -3 -3 по сезону 1015.8 947.4
18 16.08 СЗ 1 н/о н/о -3.6 -4.6 93 -4 -4 прохладно 1015.3 946.9
19 16.08 штиль 0 н/о н/о -3.5 -4.3 94 -5 -5 по сезону 1015.7 947.3
20 16.08 ЮВ 1 н/о н/о -3.8 -4.3 96 -6 -6 холодно 1016.0 947.6
21 16.08 штиль 0 н/о н/о -4.4 -5.1 95 -6 -6 очень
холодно
1016.6 948.2
23 16.08 С 1 н/о н/о +2.7 -1.5 74 +3 +3 по сезону 1017.2 948.7
22 16.08 штиль 0 н/о н/о -0.4 -2.1 88 -2 -2 холодно 1017.1 948.6
00 17.08 С 2 н/о н/о +6.5 -0.7 60 +5 +5 по сезону 1016.9 948.4
01 17.08 СЗ 2 н/о н/о +9.3 -2.6 43 +8 +8 тепло 1016.3 947.9
02 17.08 СЗ 5 н/о н/о +11.3 -2.8 37 +9 +9 по сезону 1015.4 947.0 -5.4
03 17.08 З 7 н/о н/о +11.3 -3.6 35 +9 +9 по сезону 1014.3 946.0
05 17.08 З 7 н/о 4/4 1500 м
[]
+10.7 -2.3 40 +8 +8 по сезону 1014.0 945.7
04 17.08 З 8 н/о н/о +12.6 -3.2 33 +10 +10 по сезону 1014.0 945.7
06 17.08 З 6 н/о н/о +10.2 -1.8 43 +7 +7 прохладно 1014.2 945.9
07 17.08 З 5 н/о н/о +9.7 -1.6 45 +7 +7 тепло 1014.5 946.2
08 17.08 З 4 н/о 4/4 1500 м
[]
+8.4 -1.1 51 +6 +6 по сезону 1014.9 946.6
09 17.08 СЗ 4 н/о н/о +6.0 -0.9 61 +3 +3 прохладно 1015.4 947.0
11 17.08 СЗ 3 н/о н/о +5.5 -0.1 67 +3 +3 тепло 1015.1 946.8
10 17.08 СЗ 3 н/о н/о +4.8 -0.8 67 +2 +2 по сезону 1015.4 947.0
12 17.08 С 2 н/о н/о +3.1 -0.2 79 +1 +1 прохладно 1015.1 946.8
13 17.08 штиль 0 н/о н/о +2.0 -0.9 81 +1 +1 тепло 1014.6 946.3
14 17.08 С 1 н/о н/о +2.3 0.0 85 +1 +1 по сезону 1014.3 946.0 +13.5
15 17.08 ЮВ 2 н/о н/о +3.2 +0.8 84 +1 +1 по сезону 1014.2 945.9
17 17.08 З 1 н/о н/о -0.2 -3.7 77 -2 -2 тепло 1013.0 944.8
16 17.08 С 3 н/о н/о +4.0 +0.5 78 0 0 по сезону 1013.7 945.5
18 17.08 штиль 0 н/о н/о +3.3 -0.5 76 +2 +2 по сезону 1012.4 944.2
19 17.08 Ю 2 н/о н/о +0.9 -1.5 84 -2 -2 по сезону 1012.0 943.9
20 17.08 СЗ 3 н/о н/о +3.2 +0.6 83 -1 -1 по сезону 1011.9 943.8
21 17.08 С 6 н/о н/о +4.7 -0.3 70 -0 -0 прохладно 1012.1 944.0
23 17.08 С 4 н/о 3/3 1500 м
[]
+9.1 +0.6 55 +7 +9 тепло 1011.3 943.2
22 17.08 С 6 н/о н/о +6.9 +0.1 62 +3 +3 по сезону 1012.0 943.9
00 18.08 СЗ 9 н/о н/о +9.6 +0.8 54 +6 +6 по сезону 1011.1 943.0
01 18.08 СЗ 8 н/о н/о +9.8 +3.1 63 +6 +6 по сезону 1010.2 942.2
02 18.08 СЗ 7 н/о в посл. час дождь со снегом {туман} 10/10 600 м
[]
+7.9 +3.9 76 +3 +3 прохладно 1009.8 941.8 -0.4
03 18.08 СЗ 8 н/о н/о +8.1 +4.7 79 +4 +4 холодно 1009.2 941.3
05 18.08 СЗ 6 н/о {туман} 10/10 600 м
[]
+8.5 +3.8 72 +5 +5 тепло 1009.1 941.2
04 18.08 СЗ 7 н/о н/о +8.8 +3.4 69 +5 +5 тепло 1008.7 940.8

 

Местоположение метеостанции Canberra (Новый Южный Уэльс, Австралия): широта -35.30 долгота 149.20 высота над уровнем моря 580 м.

В архиве по умолчанию представлена погода в Canberra за последнюю неделю. Архивные данные за месяц целиком и за предыдущие месяцы, начиная с января 2011 года, Вы можете получить, выбрав интересующий диапазон дат из раскрывающегося списка и нажав кнопку "Ввод!".


*Определитесь, кто Вы:
робот инопланетянин человек

Внимание! Время в таблицах - всемирное. Для получения местного времени необходимо прибавить поправку, которая в Canberra равна 10 ч.

Смотрите также архив погоды в соседних городах и на ближайших метеорологических станциях:

Погода в Tuggeranong (Новый Южный Уэльс, Австралия) (16 км)
Погода в Mount Ginini (Новый Южный Уэльс, Австралия) (47 км)
Погода в Braidwood Racecourse Aws (Новый Южный Уэльс, Австралия) (55 км)
Погода в Goulburn Airport Aws (Новый Южный Уэльс, Австралия) (72 км)
Погода в Narriga Aws (Новый Южный Уэльс, Австралия) (83 км)
Погода в Cabramurra Smhea (Новый Южный Уэльс, Австралия) (102 км)
Погода в Moruya Airport (Новый Южный Уэльс, Австралия) (109 км)
Погода в Cooma Airport Aws (Новый Южный Уэльс, Австралия) (113 км)
Погода в Ulladulla Aws (Новый Южный Уэльс, Австралия) (116 км)
Погода в Nowra Ran Air Station (Новый Южный Уэльс, Австралия) (127 км)

Пояснения к столбцам:

Ветер - указаны скорость ветра в м/с - средняя за 10 мин, порывы в срок и между сроками (в фигурных скобках) и направление, откуда дует ветер: С - северный, СВ - северо-восточный, В - восточный, ЮВ - юго-восточный, Ю - южный, ЮЗ - юго-западный, З - западный, СЗ - северо-западный.
Видимость - горизонтальная дальность видимости в метрах или километрах. При видимости от 1 до 10 км при отсутствии осадков обычно наблюдается дымка, при ухудшении видимости до 1 км и менее - туман. В сухую погоду видимость может ухудшаться дымом, пылью или мглою.
Явления - указаны атмосферные явления, наблюдавшиеся в срок или в последний час перед сроком; фигурными скобками обозначены явления, наблюдавшиеся между сроками (за 1-3 часа до срока); квадратными скобками обозначены град или гололедные отложения с указанием их диаметра в мм.
Облачность - указаны через наклонную черту общая и нижняя облачность в баллах и высота нижней границы облаков в метрах; квадратными скобками обозначены формы облаков: Ci - перистые, Cs - перисто-слоистые, Cc - перисто-кучевые, Ac - высококучевые, As - высокослоистые, Sc - слоисто-кучевые, Ns - слоисто-дождевые, Cu - кучевые, Cb - кучево-дождевые. Подробнее классификацию облаков см. в Атласе облаков (PDF).
T - Температура воздуха - температура, измеренная на высоте 2 м над землей.
Td - Температура точки росы - температура, при понижении до которой содержащийся в воздухе водяной пар достигнет насыщения.
f - Относительная влажность воздуха - влажноcть воздуха, измеренная на высоте 2 м над землей.
Te - Эффективная температура - температура, которую ощущает одетый по сезону человек в тени. Характеристика душности погоды. При расчете учитывается влияние влажности воздуха и скорости ветра на теплоощущения человека.
Tes - Эффективная температура на солнце - температура, которую ощущает человек, с поправкой на солнечный нагрев. Характеристика знойности погоды. Зависит от высоты солнца над горизонтом, облачности и скорости ветра. Ночью, в пасмурную погоду, а также при ветре 12 м/с и более поправка равна нулю.
P - Атмосферное давление - приведенное к уровню моря атмосферное давление.
Po - Атмосферное давление - измеренное на уровне метеостанции атмосферное давление.
Tmin - Минимальная температура - минимум температуры воздуха на высоте 2 м над землей.
Tmax - Максимальная температура - максимум температуры воздуха на высоте 2 м над землей.
R - Количество осадков - Количество выпавших осадков за период времени, мм. При наведении курсора мыши на число - период времени, за который выпало указанное количество осадков.
R24 - Количество осадков - Количество выпавших осадков за 24 часа, мм.
S - Снежный покров - Высота снежного покрова, см. При наведении курсора мыши на число - состояние снежного покрова и степень покрытия местности в баллах.